Regional Weather Roundup
Issued by NWS Goodland, KS

Home | Current Version | Previous Version | Graphics & Text | Print | Product List | Glossary On
Versions: 1 2 3 4 5 6 7 8 9 10 11 12 13 14 15 16 17 18 19 20 21 22 23 24 25 26 27 28 29 30 31 32 33 34 35 36 37 38 39 40 41 42 43 44 45 46 47 48 49 50
000
ASUS43 KGLD 270508
RWRGLD

GOODLAND FORECAST AREA HOURLY WEATHER ROUNDUP
NATIONAL WEATHER SERVICE GOODLAND KS
1000 PM MST FRI DEC 26 2014

...OFFICIAL OBSERVATIONS...

CITY           SKY/WX    TMP DP  RH WIND       PRES   REMARKS
GOODLAND KS    CLOUDY    15  13  91 NW8       30.14R
HILL CITY KS   PTCLDY    21  17  84 NW10      30.17R WCI  10
IMPERIAL NEB   LGT SNOW  18  14  84 NW6       30.15R FOG
MCCOOK NEB     CLOUDY    19  16  88 NW8       30.16R FOG
AKRON CO       LGT SNOW  11   9  92 W7        30.09R FOG
BURLINGTON CO  PTCLDY     8   5  87 NW9       30.11R
LIMON CO       MOCLDY     6   4  91 NW3       30.07R
$$

...UNOFFICIAL OBSERVATIONS...

CITY           SKY/WX    TMP DP  RH WIND       PRES   REMARKS
COLBY KS       FLURRIES  12  12 100 W8        30.16R
NORTON KS      PTCLDY    18  12  79 NW9       30.15R
SHARON SPRINGS   N/A      7   5  89 NW9         N/A
KIT CARSON CO    N/A     16  12  85 MISG        N/A
$$



USA.gov is the U.S. government's official web portal to all federal, state and local government web resources and services.